Regional Weather Roundup
Issued by NWS Charleston, SC

Current Version | Previous Version | Text Only | Print | Product List | Glossary Off
Versions: 1 2 3 4 5 6 7 8 9 10 11 12 13 14 15 16 17 18 19 20 21 22 23 24 25 26 27 28 29 30 31 32 33 34 35 36 37 38 39 40 41 42 43 44 45 46 47 48 49 50
000 ASUS42 KCHS 201712 RWRCHS Regional Weather Roundup National Weather Service Charleston SC 100 PM EDT SUN MAY 20 2018 NOTE: "fair" indicates few or no clouds below 12,000 feet with no significant weather and/or obstructions to visibility. Not all stations are quality controlled. Use data with caution, especially dewpoint observations. SCZ027-030-031-034>040-042>050-201800- ...Southeast South Carolina... CITY SKY/WX TMP DP RH WIND PRES REMARKS N Charleston PTSUNNY 83 71 67 S10 30.17F Waterfront Prk N/A 77 73 87 S7 30.03S Mount Pleasant FAIR 79 73 83 S7 30.18F Johns Island FAIR 81 72 74 S10 30.18F Pinopolis N/A 81 72 74 VRB3 30.11S Moncks Corner PTSUNNY 81 70 69 S8 30.16F Summerville FAIR 82 72 69 S3 30.18S Beaufort MCAS PTSUNNY 81 72 74 SE5 30.18S Beaufort Arpt FAIR 79 70 73 S6 30.18S Hilton Head Is CLOUDY 77 72 83 S6 30.20S Walterboro FAIR 81 70 69 CALM 30.18F Allendale FAIR 81 72 74 VRB3 30.16F ...Southern Midlands and Pee Dee... CITY SKY/WX TMP DP RH WIND PRES REMARKS Georgetown PTSUNNY 77 77 100 S9 30.19S Kingstree FAIR 81 72 74 S3 30.15F Orangeburg FAIR 80 70 71 S5 30.16F Barnwell CLOUDY 79 72 78 CALM 30.16F Aiken PTSUNNY 79 70 73 S6 30.19S Manning FAIR 77 66 69 S5 30.15F Columbia CLOUDY 79 73 82 S9 30.14F THUNDER Sumter PTSUNNY 82 69 63 S5 30.13F Florence FAIR 81 70 69 SW5 30.15F Myrtle Beach LGT RAIN 76 72 87 S13 30.19F N Myrtle Beach FAIR 76 72 87 S12 30.17F $$ GAZ063-065-086>088-099>101-113>116-118-119-134>141-150-201800- ...Southeast Georgia... CITY SKY/WX TMP DP RH WIND PRES REMARKS Savannah Arpt CLOUDY 80 68 66 SW7 30.19R Hunter AAF FAIR 80 69 68 SE5 30.16S Fort Stewart PTSUNNY 78 68 72 S6 30.17S Statesboro FAIR 81 67 63 SW6 30.18S Sylvania FAIR 82 70 68 S3 30.18F Claxton CLOUDY 80 70 72 SE3 30.18S ...CSRA, Central and far Southeast Georgia... CITY SKY/WX TMP DP RH WIND PRES REMARKS Thomson CLOUDY 76 71 83 SW5 30.21F Augusta-Bush PTSUNNY 80 71 74 SE6 30.15F Augusta-Daniel PTSUNNY 79 72 79 S6 30.16F Swainsboro LGT RAIN 81 72 74 SE5 30.17S Vidalia CLOUDY 81 64 57 S8 30.17S Eastman PTSUNNY 84 63 49 SE9 30.17S Hazlehurst DRIZZLE 79 66 63 S7 30.16F Alma LGT RAIN 77 68 73 S8 30.18S Waycross DRIZZLE 74 71 91 E3 30.18S Jesup DRIZZLE 77 68 73 CALM 30.19S Baxley DRIZZLE 73 73 100 S5 30.18S Brunswick LGT RAIN 73 68 83 SE5 30.19S Saint Simons LGT RAIN 76 72 87 E3 30.18S $$ SCZ027-028-034-036>038-045-046-048>050-GAZ119-141-201800- ...Lake and Supplemental Coastal Observations... STATION/POSITION TIME TEMP WIND PRES WAVE SWELL AIR SEA DIR/SP/G HT/PER HT/PER/DIR (UTC) (F) (DEG/KT/KT) (MB) (FT/S) (FT/S/D) Winyah Bay 1545 76 160/ 10 1022.0 Lake Murray 1620 78 180/ 5/ 6 1020.0F ACE Basin NERRS 1545 81 CALM 1022.0 Fort Pulaski 1648 78 78 150/ 4/ 5 1022.7R Sapelo Island 1600 77 110/ 4 1022.0 $$ ANZ835-935-AMZ111-154-330-350-352-354-370-450-454-472-201800- ...C-MAN and Buoy Observations... STATION/POSITION TIME TEMP WIND PRES WAVE SWELL AIR SEA DIR/SP/G HT/PER HT/PER/DIR (UTC) (F) (DEG/KT/KT) (MB) (FT/S) (FT/S/D) Buoy 41004 1650 75 180/ 14/ 17 1022.3F 6/ 8 5/150/ 8 Buoy 41008 1650 74 75 130/ 6/ 8 1021.9R 4/ 9 3/130/ 9 Folly Beach CMAN 1600 75 170/ 11/ 13 1022.9R Capers Nearshore 1608 75 75 180/ 10/ 16 1022.8R Fripp Nearshore 1608 75 76 160/ 10/ 14 1021.8R STATION/POSITION TIME TEMP WIND PRES WAVE SWELL AIR SEA DIR/SP/G HT/PER HT/PER/DIR (UTC) (F) (DEG/KT/KT) (MB) (FT/S) (FT/S/D) 5E St. Marys GA 1630 74 N/A 4/ 8 Frying Pan Buoy 1650 75 75 190/ 16/ 19 1022.2F 5/ 7 3/130/ 7 Buoy 41025 1650 78 76 200/ 19/ 23 1022.1F 7/ 8 2/120/15 Cape Lookout NC 1600 210/ 12/ 14 1022.3R Buoy 41002 1650 77 160/ 14/ 17 1023.8F 5/ 8 3/150/ 8 Buoy 41010 1650 78 79 120/ 16/ 19 1021.7S 7/ 9 3/110/ 9 St Augustine FL 1700 73 75 30/ 9/ 10 1021.1F $$

USA.gov is the U.S. government's official web portal to all federal, state and local government web resources and services.